• In Italy
  • List of Countries
  • For 7 days
  • Water Temperature
  • Satellite Maps
  • Weather Map
  • Weather Widgets
  • user-avatar
    Login

    Hourly Weather Celinnyy

    Today, 15 August, Wednesday

    Time Temperature Precipitation Wind Pressure Humidity
    00:00 +16°C° 0 mm 2 mps 725 mmHg 89%
    01:00 +16°C° 0 mm 3 mps 725 mmHg 90%
    02:00 +16°C° 0 mm 3 mps 725 mmHg 91%
    03:00 +16°C° 0 mm 3 mps 725 mmHg 92%
    04:00 +14°C° 0 mm 4 mps 725 mmHg 93%
    05:00 +14°C° 0 mm 5 mps 726 mmHg 89%
    06:00 +15°C° 0 mm 5 mps 726 mmHg 86%
    07:00 +15°C° 0 mm 6 mps 726 mmHg 82%
    08:00 +16°C° 0 mm 6 mps 727 mmHg 76%
    09:00 +17°C° 0 mm 6 mps 727 mmHg 69%
    10:00 +19°C° 0 mm 6 mps 728 mmHg 63%
    11:00 +20°C° 0 mm 6 mps 728 mmHg 60%
    12:00 +21°C° 0 mm 7 mps 728 mmHg 57%
    13:00 +21°C° 0 mm 7 mps 728 mmHg 54%
    14:00 +21°C° 0 mm 6 mps 728 mmHg 54%
    15:00 +21°C° 0 mm 6 mps 728 mmHg 54%
    16:00 +21°C° 0 mm 6 mps 729 mmHg 53%
    17:00 +20°C° 0 mm 5 mps 729 mmHg 59%
    18:00 +19°C° 0 mm 4 mps 729 mmHg 65%
    19:00 +18°C° 0 mm 4 mps 729 mmHg 70%
    20:00 +17°C° 0 mm 4 mps 730 mmHg 75%
    21:00 +15°C° 0 mm 4 mps 730 mmHg 79%
    22:00 +14°C° 0 mm 3 mps 730 mmHg 83%
    23:00 +13°C° 0 mm 3 mps 730 mmHg 85%

    Tomorrow, 16 August, Thursday

    Time Temperature Precipitation Wind Pressure Humidity
    00:00 +13°C° 0 mm 3 mps 730 mmHg 87%
    01:00 +12°C° 0 mm 3 mps 730 mmHg 89%
    02:00 +12°C° 0 mm 3 mps 731 mmHg 90%
    03:00 +12°C° 0 mm 3 mps 731 mmHg 90%
    04:00 +12°C° 0 mm 3 mps 731 mmHg 91%
    05:00 +13°C° 0 mm 3 mps 731 mmHg 87%
    06:00 +14°C° 0 mm 3 mps 731 mmHg 84%
    07:00 +16°C° 0 mm 3 mps 732 mmHg 80%
    08:00 +18°C° 0 mm 4 mps 732 mmHg 73%
    09:00 +19°C° 0 mm 4 mps 732 mmHg 66%
    10:00 +21°C° 0 mm 4 mps 732 mmHg 58%
    11:00 +22°C° 0 mm 4 mps 732 mmHg 55%
    12:00 +23°C° 0 mm 4 mps 732 mmHg 51%
    13:00 +25°C° 0 mm 4 mps 731 mmHg 48%
    14:00 +25°C° 0 mm 4 mps 731 mmHg 48%
    15:00 +25°C° 0 mm 4 mps 731 mmHg 49%
    16:00 +25°C° 0 mm 4 mps 731 mmHg 50%
    17:00 +23°C° 0 mm 4 mps 731 mmHg 57%
    18:00 +21°C° 0 mm 3 mps 731 mmHg 64%
    19:00 +20°C° 0 mm 3 mps 730 mmHg 71%
    20:00 +19°C° 0 mm 3 mps 730 mmHg 74%
    21:00 +18°C° 0 mm 3 mps 730 mmHg 76%
    22:00 +17°C° 0 mm 3 mps 730 mmHg 79%
    23:00 +17°C° 0 mm 3 mps 730 mmHg 78%

    Day after tomorrow, 17 August, Friday

    Time Temperature Precipitation Wind Pressure Humidity
    00:00 +17°C° 0 mm 3 mps 730 mmHg 77%
    01:00 +17°C° 0 mm 3 mps 730 mmHg 77%
    02:00 +17°C° 0 mm 3 mps 730 mmHg 75%
    03:00 +15°C° 0 mm 4 mps 729 mmHg 73%
    04:00 +15°C° 0 mm 4 mps 729 mmHg 72%
    05:00 +17°C° 0 mm 4 mps 729 mmHg 69%
    06:00 +18°C° 0 mm 4 mps 729 mmHg 67%
    07:00 +19°C° 0 mm 5 mps 729 mmHg 64%
    08:00 +21°C° 0 mm 5 mps 729 mmHg 61%
    09:00 +22°C° 0 mm 5 mps 729 mmHg 58%
    10:00 +24°C° 0 mm 6 mps 729 mmHg 55%
    11:00 +26°C° 0.1 mm 6 mps 729 mmHg 55%
    12:00 +26°C° 0.1 mm 6 mps 729 mmHg 56%
    13:00 +27°C° 0.1 mm 6 mps 729 mmHg 56%
    14:00 +26°C° 0.4 mm 6 mps 729 mmHg 59%
    15:00 +24°C° 0.4 mm 6 mps 728 mmHg 61%
    16:00 +25°C° 0.4 mm 5 mps 728 mmHg 64%
    17:00 +22°C° 0.3 mm 5 mps 728 mmHg 70%
    18:00 +21°C° 0.3 mm 4 mps 728 mmHg 77%
    19:00 +19°C° 0.3 mm 3 mps 728 mmHg 83%
    20:00 +18°C° 0 mm 3 mps 729 mmHg 85%
    21:00 +17°C° 0 mm 2 mps 729 mmHg 88%
    22:00 +16°C° 0 mm 2 mps 729 mmHg 90%
    23:00 +16°C° 0 mm 2 mps 729 mmHg 90%

    18 August, Saturday

    Time Temperature Precipitation Wind Pressure Humidity
    00:00 +15°C° 0 mm 2 mps 729 mmHg 90%
    01:00 +15°C° 0 mm 2 mps 729 mmHg 90%
    02:00 +14°C° 0 mm 2 mps 729 mmHg 91%
    03:00 +14°C° 0 mm 2 mps 729 mmHg 92%
    04:00 +13°C° 0 mm 2 mps 729 mmHg 92%
    05:00 +13°C° 0 mm 3 mps 729 mmHg 91%
    06:00 +13°C° 0 mm 3 mps 729 mmHg 89%
    07:00 +14°C° 0 mm 3 mps 729 mmHg 88%
    08:00 +16°C° 0 mm 3 mps 729 mmHg 84%
    09:00 +17°C° 0 mm 4 mps 729 mmHg 79%
    10:00 +18°C° 0 mm 4 mps 729 mmHg 75%
    11:00 +18°C° 0.2 mm 4 mps 729 mmHg 72%
    12:00 +19°C° 0.2 mm 4 mps 729 mmHg 68%
    13:00 +20°C° 0.2 mm 4 mps 729 mmHg 65%
    14:00 +19°C° 0.4 mm 4 mps 729 mmHg 66%
    15:00 +19°C° 0.4 mm 4 mps 729 mmHg 67%
    16:00 +19°C° 0.4 mm 4 mps 728 mmHg 68%
    17:00 +18°C° 0.3 mm 3 mps 729 mmHg 72%
    18:00 +17°C° 0.3 mm 3 mps 729 mmHg 77%
    19:00 +16°C° 0.3 mm 2 mps 729 mmHg 81%
    20:00 +14°C° 0.2 mm 3 mps 729 mmHg 83%
    21:00 +14°C° 0.2 mm 3 mps 729 mmHg 85%
    22:00 +13°C° 0.2 mm 3 mps 729 mmHg 87%
    23:00 +13°C° 0.3 mm 3 mps 729 mmHg 88%

    19 August, Sunday

    Time Temperature Precipitation Wind Pressure Humidity
    00:00 +12°C° 0.3 mm 3 mps 729 mmHg 90%
    01:00 +12°C° 0.3 mm 3 mps 729 mmHg 91%
    02:00 +12°C° 0.2 mm 4 mps 729 mmHg 92%
    03:00 +12°C° 0.2 mm 4 mps 729 mmHg 92%
    04:00 +10°C° 0.2 mm 5 mps 729 mmHg 93%
    05:00 +10°C° 0 mm 5 mps 730 mmHg 92%
    06:00 +10°C° 0 mm 5 mps 730 mmHg 91%
    07:00 +12°C° 0 mm 5 mps 730 mmHg 90%
    08:00 +11°C° 0 mm 6 mps 730 mmHg 87%
    09:00 +13°C° 0 mm 6 mps 730 mmHg 83%
    10:00 +13°C° 0 mm 6 mps 730 mmHg 80%
    11:00 +14°C° 0.1 mm 7 mps 730 mmHg 76%
    12:00 +14°C° 0.1 mm 7 mps 730 mmHg 71%
    13:00 +15°C° 0.1 mm 7 mps 730 mmHg 67%
    14:00 +15°C° 0.1 mm 6 mps 730 mmHg 67%
    15:00 +15°C° 0.1 mm 6 mps 730 mmHg 67%
    16:00 +15°C° 0.1 mm 6 mps 730 mmHg 67%
    17:00 +14°C° 0 mm 6 mps 730 mmHg 71%
    18:00 +13°C° 0 mm 5 mps 730 mmHg 74%
    19:00 +12°C° 0 mm 4 mps 730 mmHg 77%
    20:00 +12°C° 0 mm 5 mps 730 mmHg 80%
    21:00 +10°C° 0 mm 5 mps 730 mmHg 82%
    22:00 +9°C° 0 mm 5 mps 730 mmHg 85%
    23:00 +9°C° 0 mm 5 mps 730 mmHg 86%

    20 August, Monday

    Time Temperature Precipitation Wind Pressure Humidity
    00:00 +8°C° 0 mm 5 mps 730 mmHg 88%
    01:00 +8°C° 0 mm 5 mps 730 mmHg 89%
    02:00 +7°C° 0 mm 5 mps 730 mmHg 89%
    03:00 +7°C° 0 mm 6 mps 730 mmHg 88%
    04:00 +7°C° 0 mm 6 mps 730 mmHg 88%
    05:00 +7°C° 0 mm 6 mps 730 mmHg 85%
    06:00 +8°C° 0 mm 7 mps 730 mmHg 81%
    07:00 +9°C° 0 mm 8 mps 730 mmHg 78%
    08:00 +10°C° 0 mm 8 mps 730 mmHg 73%
    09:00 +11°C° 0 mm 8 mps 730 mmHg 68%
    10:00 +12°C° 0 mm 8 mps 730 mmHg 63%
    11:00 +13°C° 0 mm 8 mps 729 mmHg 61%
    12:00 +15°C° 0 mm 8 mps 729 mmHg 59%
    13:00 +16°C° 0 mm 7 mps 729 mmHg 57%
    14:00 +16°C° 0 mm 7 mps 729 mmHg 56%
    15:00 +16°C° 0 mm 7 mps 729 mmHg 56%
    16:00 +17°C° 0 mm 6 mps 729 mmHg 56%
    17:00 +15°C° 0 mm 5 mps 729 mmHg 61%
    18:00 +14°C° 0 mm 4 mps 729 mmHg 67%
    19:00 +13°C° 0 mm 3 mps 729 mmHg 72%
    20:00 +12°C° 0 mm 3 mps 729 mmHg 76%
    21:00 +11°C° 0 mm 3 mps 729 mmHg 80%
    22:00 +10°C° 0 mm 3 mps 730 mmHg 83%
    23:00 +10°C° 0 mm 3 mps 730 mmHg 85%
    Show more